Location: Newark
(25.0000°N, 73.5000°E)
Time: 01:28:36
(UTC+00:00)

A-11 Canister half - Visible Passes

Search period start: 05 October 2022 00:00
Search period end: 15 October 2022 00:00
Orbit: 1515 x 1684 km, 47.2° (Epoch: 04 October)

Date Brightness Start Highest point End Pass type
(mag) Time Alt. Az. Time Alt. Az. Time Alt. Az.
05 Oct 9.6 14:29:12 10° WSW 14:38:51 55° NW 14:47:03 14° NE visible
05 Oct 10.6 16:38:46 10° WNW 16:45:16 22° NNW 16:45:16 22° NNW visible
05 Oct 10.5 21:06:44 25° E 21:06:44 25° E 21:10:18 10° ESE visible
05 Oct 9.0 23:05:01 48° WSW 23:06:28 52° SW 23:15:22 10° SSE visible
06 Oct 9.5 14:06:07 10° WSW 14:15:52 58° NW 14:25:20 10° NE visible
06 Oct 10.6 16:15:29 10° WNW 16:22:39 22° NNW 16:23:48 22° N visible
06 Oct 11.0 20:46:10 14° E 20:46:10 14° E 20:47:12 10° ESE visible
06 Oct 9.0 22:44:27 54° SSW 22:44:27 54° SSW 22:52:34 10° SSE visible
07 Oct 9.5 13:43:02 10° WSW 13:52:54 62° NW 14:02:27 10° NE visible
07 Oct 10.5 15:52:11 10° WNW 15:59:33 23° NNW 16:02:16 21° N visible
07 Oct 9.5 22:23:50 42° S 22:23:50 42° S 22:29:46 10° SSE visible
08 Oct 9.5 13:19:58 10° WSW 13:29:55 66° NW 13:39:33 10° NE visible
08 Oct 10.5 15:28:54 10° WNW 15:36:28 24° NNW 15:40:38 18° NNE visible
08 Oct 11.3 17:38:47 10° NW 17:38:50 10° NW 17:38:50 10° NW visible
08 Oct 10.1 22:03:08 28° SSE 22:03:08 28° SSE 22:06:57 10° SSE visible
09 Oct 10.4 00:01:24 11° WSW 00:01:42 11° WSW 00:04:02 10° SW visible
09 Oct 9.4 12:56:56 10° SW 13:06:57 71° NW 13:16:39 10° NE visible
09 Oct 10.5 15:05:36 10° WNW 15:13:21 26° NNW 15:18:57 16° NNE visible
09 Oct 11.1 17:15:41 10° NW 17:17:09 13° NNW 17:17:09 13° NNW visible
09 Oct 10.7 21:42:21 17° SSE 21:42:21 17° SSE 21:44:06 10° SE visible
09 Oct 10.5 23:40:37 12° SW 23:40:37 12° SW 23:42:28 10° SSW visible
10 Oct 10.5 14:42:20 10° WNW 14:50:17 27° NNW 14:57:14 12° NNE visible
10 Oct 11.0 16:52:34 10° NW 16:55:25 15° NNW 16:55:25 15° NNW visible
10 Oct 10.6 23:19:44 11° SSW 23:19:44 11° SSW 23:20:29 10° SSW visible
11 Oct 10.5 14:19:03 10° W 14:27:12 28° NNW 14:35:08 10° NNE visible
11 Oct 10.8 16:29:25 10° NW 16:33:40 17° NNW 16:33:40 17° NNW visible
12 Oct 10.4 13:55:47 10° W 14:04:07 29° NNW 14:12:14 10° NNE visible
12 Oct 10.7 16:06:15 10° NW 16:11:52 18° N 16:11:52 18° N visible
13 Oct 10.4 13:32:31 10° W 13:41:02 31° NNW 13:49:21 10° NNE visible
13 Oct 10.6 15:43:03 10° NW 15:49:14 18° N 15:50:04 18° N visible
14 Oct 10.4 13:09:17 10° W 13:17:59 33° NNW 13:26:27 10° NNE visible
14 Oct 10.6 15:19:51 10° NW 15:26:05 18° N 15:28:13 17° NNE visible
